Content
SEND FEEDBACK

Daily
Averages
Monthly
Summary
United Kingdom

LONDON, ENGLAND


Home > Europe > United Kingdom > England
Elevation: 203 feet     Latitude: 51 09N     Longitude: 000 11W

WEATHER
 
SELECT A DAY
Number of Records: 293,611;   Date Range: 7/1/96 - 8/18/14
 
SHARE

PRINT THIS DATA

[ ← Previous Day ]
WEATHER ALMANAC - FEBRUARY 23, 2013
[ Next Day → ]
[ °C ]   °F
Weather ElementAverageHighLow
Temperature33.1 °F35.6 °F (11:20 am)32 °F (12:50 am)
Dewpoint22.8 °F26.6 °F (11:20 am)19.4 °F (1:50 pm)
Humidity66.4 %75 % (12:50 am)56 % (1:50 pm)
Barometer30.12 in30.18 in (9:20 pm)30.06 in (12:50 am)
Wind Speed11.6 mph17.3 mph (1:20 pm)
Wind Gust28.8 mph (11:50 am)
Weather ElementAverage
Visibility6 mi
Wind DirectionNE (39.4 °)

Weather ElementTotal
Precipitation---
Heating Degree Days31.2 (Base 65)
Averaged from 47 records on February 23, 2013
WEATHER CONDITIONS BREAKOUT
WIND DIRECTION BREAKOUT
WEATHER BY HOUR - FEBRUARY 23, 2013
[ °C ]   °F
Local TimeTemperatureDewpointHumidityBarometerVisibilityWind DirectionWind SpeedGust SpeedPrecipitationEventsConditions
12:50 AM32.0 °F24.8 °F75 %30.06 in6.2 miNNE (30°)11.5 mphSnowLight Snow
1:20 AM32.0 °F24.8 °F75 %30.06 in6.2 miNNE (20°)12.7 mphSnowLight Snow
1:50 AM32.0 °F24.8 °F75 %30.06 in6.2 miNorth (10°)12.7 mphSnowLight Snow
2:20 AM32.0 °F24.8 °F75 %30.06 in6.2 miNorth (10°)10.4 mphSnowLight Snow
2:50 AM32.0 °F24.8 °F75 %30.06 in6.2 miNorth (10°)11.5 mphSnowLight Snow
3:20 AM32.0 °F24.8 °F75 %30.06 in6.2 miNNE (20°)11.5 mphMostly Cloudy
3:50 AM32.0 °F24.8 °F75 %30.06 in6.2 miNorth (10°)11.5 mphMostly Cloudy
4:20 AM32.0 °F24.8 °F75 %30.06 in6.2 miNNE (20°)11.5 mphMostly Cloudy
4:50 AM32.0 °F24.8 °F75 %30.06 in6.2 miNNE (20°)10.4 mphMostly Cloudy
5:20 AM32.0 °F24.8 °F75 %30.09 in6.2 miNNE (20°)11.5 mphMostly Cloudy
5:50 AM32.0 °F24.8 °F75 %30.09 in6.2 miNorth (10°)10.4 mphMostly Cloudy
6:20 AM32.0 °F23.0 °F69 %30.09 in6.2 miNNE (20°)11.5 mphOvercast
6:50 AM32.0 °F23.0 °F69 %30.09 in6.2 miNNE (20°)10.4 mphOvercast
7:20 AM32.0 °F23.0 °F69 %30.09 in6.2 miVariable10.4 mphMostly Cloudy
7:50 AM32.0 °F23.0 °F69 %30.09 in6.2 miNNE (20°)11.5 mphMostly Cloudy
8:20 AM32.0 °F24.8 °F75 %30.09 in5.6 miNNE (20°)10.4 mphSnowLight Snow
8:50 AM32.0 °F24.8 °F75 %30.12 in5.6 miNNE (20°)11.5 mphSnowLight Snow
9:20 AM32.0 °F24.8 °F75 %30.12 in5.0 miNNE (20°)11.5 mphSnowLight Snow
9:50 AM33.8 °F24.8 °F70 %30.12 in6.2 miNNE (30°)11.5 mphMostly Cloudy
10:20 AM33.8 °F24.8 °F70 %30.12 in5.6 miNE (40°)10.4 mphSnowLight Snow
10:50 AM33.8 °F24.8 °F70 %30.12 in3.7 miNE (40°)13.8 mphSnowLight Snow
11:20 AM35.6 °F26.6 °F70 %30.12 in6.2 miNNE (30°)13.8 mphSnowLight Snow Grains
11:50 AM33.8 °F24.8 °F70 %30.12 in6.2 miNE (40°)15.0 mph28.8 mphSnowSnow Grains
12:20 PM33.8 °F23.0 °F65 %30.12 in5.6 miNE (50°)13.8 mphMostly Cloudy
12:50 PM33.8 °F23.0 °F65 %30.12 in5.6 miNE (40°)15.0 mphMostly Cloudy
1:20 PM33.8 °F21.2 °F60 %30.12 in5.6 miNE (50°)17.3 mphMostly Cloudy
1:50 PM33.8 °F19.4 °F56 %30.12 in6.2 miNE (40°)15.0 mphMostly Cloudy
2:20 PM33.8 °F21.2 °F60 %30.12 in6.2 miNE (50°)13.8 mphMostly Cloudy
2:50 PM33.8 °F21.2 °F60 %30.12 in6.2 miNE (40°)16.1 mphMostly Cloudy
3:20 PM33.8 °F19.4 °F56 %30.12 in6.2 miNE (40°)13.8 mphMostly Cloudy
3:50 PM33.8 °F19.4 °F56 %30.12 in6.2 miNE (40°)12.7 mphMostly Cloudy
4:20 PM33.8 °F19.4 °F56 %30.12 in6.2 miNNE (30°)10.4 mphMostly Cloudy
4:50 PM33.8 °F19.4 °F56 %30.12 in6.2 miNNE (30°)12.7 mph24.2 mphMostly Cloudy
5:20 PM33.8 °F19.4 °F56 %30.15 in6.2 miNE (40°)10.4 mphMostly Cloudy
5:50 PM33.8 °F21.2 °F60 %30.15 in6.2 miNE (40°)8.1 mphMostly Cloudy
6:20 PM33.8 °F21.2 °F60 %30.15 in6.2 miNE (40°)9.2 mphMostly Cloudy
6:50 PM33.8 °F21.2 °F60 %30.15 in6.2 miNNE (20°)8.1 mphMostly Cloudy
7:20 PM33.8 °F21.2 °F60 %30.15 in6.2 miNorth (10°)9.2 mphMostly Cloudy
7:50 PM33.8 °F21.2 °F60 %30.15 in6.2 miNorth (360°)10.4 mphMostly Cloudy
8:20 PM33.8 °F23.0 °F65 %30.15 in6.2 miNNE (20°)10.4 mphMostly Cloudy
8:50 PM33.8 °F23.0 °F65 %30.15 in6.2 miNorth (10°)10.4 mphMostly Cloudy
9:20 PM33.8 °F21.2 °F60 %30.18 in6.2 miNNE (20°)11.5 mphMostly Cloudy
9:50 PM33.8 °F21.2 °F60 %30.18 in6.2 miNorth (10°)10.4 mphMostly Cloudy
10:20 PM33.8 °F21.2 °F60 %30.18 in6.2 miNorth (10°)11.5 mphOvercast
10:50 PM33.8 °F21.2 °F60 %30.18 in6.2 miNorth (360°)10.4 mphOvercast
11:20 PM33.8 °F23.0 °F65 %30.18 in6.2 miNorth (10°)9.2 mphOvercast
11:50 PM33.8 °F23.0 °F65 %30.18 in6.2 miNorth (10°)10.4 mphOvercast
Hourly data recorded from EGKK, located miles away from London, England







STORIES FROM OUR PARTNERS